Snowfall_Accumulation
4.5 4.9 5.0 5.2 5.1 4.7 4.2 3.7 3.5 3.3 3.3 3.4 3.6 3.7 3.9 4.0 4.0 3.8 3.6 3.6 3.4 3.5 3.5 3.5 3.5 3.5 3.7 3.9 4.2 4.5 4.8 5.0 5.1 5.3 5.7 6.3 6.6 7.1 7.5 8.3 9.5 9.7 9.7 9.9 10.0 11.3 11.9 12.1 11.0 10.5 10.0 11.4 11.0 10.4 9.8 9.4 9.1 9.8 10.1 10.9 12.1 10.8 12.2 16.4 17.5 12.6 5.6 2.9 2.8 2.9 2.5 2.3 3.8 3.4 4.9 4.8 3.9 3.2 2.7 2.9 2.9 3.2 3.2 3.1 3.1
3.8 3.7 4.0 4.1 4.6 4.8 4.9 4.5 4.3 3.8 3.6 3.4 3.3 3.2 3.1 3.1 3.3 3.2 3.6 3.6 3.7 4.2 4.2 5.0 4.2 4.4 4.6 4.6 4.7 4.8 5.0 5.2 5.4 5.8 6.4 7.1 7.5 8.0 9.2 9.7 10.3 9.9 9.4 9.9 9.4 9.6 10.3 11.7 10.9 10.1 9.4 10.7 10.1 10.2 9.8 10.2 10.0 10.6 9.7 10.1 11.4 10.9 9.2 14.2 16.1 13.7 10.9 4.1 2.9 2.1 2.3 1.9 3.9 2.6 4.6 4.7 5.0 3.7 3.7 3.3 2.6 2.6 3.0 2.9 3.1
3.9 3.6 3.6 3.9 4.1 4.2 4.4 4.7 4.7 4.7 4.7 4.6 4.3 4.2 3.9 3.5 3.4 3.7 3.6 3.6 3.7 3.9 4.5 4.9 5.0 5.3 5.7 6.1 6.2 6.3 6.4 6.6 6.8 7.5 8.3 9.1 9.6 9.4 9.1 9.6 10.0 10.2 9.8 9.4 9.1 9.6 9.8 10.1 10.1 9.5 9.1 10.2 9.6 9.5 9.0 9.7 9.7 11.1 10.7 9.2 10.1 9.0 8.4 9.5 13.8 15.5 11.5 7.3 3.4 2.8 2.4 2.3 2.8 3.6 3.2 3.4 3.6 3.7 4.7 4.1 3.6 3.0 2.8 2.5 2.9
4.3 4.2 4.6 4.3 4.0 4.1 4.2 4.4 4.5 4.5 4.7 5.2 4.8 4.9 4.8 4.7 4.6 5.1 5.0 5.0 5.0 4.7 4.5 4.7 4.6 4.8 5.0 5.3 5.5 6.0 6.6 7.0 7.5 8.1 9.0 9.5 9.6 9.2 9.0 9.2 9.5 10.1 10.2 9.8 9.6 9.5 9.7 10.1 9.0 8.2 8.6 10.0 9.3 8.9 8.5 9.0 9.6 10.3 10.3 9.1 9.0 9.2 8.3 8.8 10.2 13.6 12.5 11.0 5.6 3.8 2.8 2.8 2.6 2.0 2.2 2.8 3.8 5.0 5.2 4.7 3.8 4.0 3.2 2.7 3.0
5.5 5.5 5.3 5.4 5.2 5.1 5.1 4.6 4.6 4.6 5.0 4.8 5.0 5.1 5.2 5.3 5.3 5.7 5.6 5.4 5.2 5.1 5.1 5.1 5.6 5.7 6.4 6.7 7.1 7.5 8.3 8.8 9.4 9.6 9.5 9.6 9.6 9.4 9.2 9.0 8.8 8.8 8.9 9.2 9.3 9.5 9.8 9.7 9.3 9.2 9.1 9.8 9.2 9.6 8.9 9.4 9.6 9.7 10.2 9.2 9.1 8.3 8.1 8.2 9.4 9.8 12.7 12.7 8.5 4.5 3.1 2.7 2.3 2.2 2.1 3.3 4.0 4.8 5.5 6.1 5.9 5.3 4.4 3.4 3.2
5.6 5.9 5.9 6.1 6.2 6.0 6.2 6.1 6.0 5.6 5.3 5.2 5.2 4.8 4.5 4.7 4.8 4.9 5.1 5.7 5.7 5.9 6.1 6.1 6.6 7.1 7.4 7.7 8.0 8.5 9.0 9.8 10.0 10.0 9.7 9.4 8.7 8.3 8.4 8.4 8.5 8.5 8.5 8.4 8.5 8.8 9.6 9.5 8.9 8.5 9.6 10.6 10.1 8.8 8.6 9.8 10.9 11.6 11.5 10.6 9.7 9.5 9.7 9.4 8.6 9.5 10.8 10.6 8.5 7.2 4.2 4.0 3.5 3.0 2.5 2.8 4.0 5.1 6.0 6.1 6.0 6.0 6.5 6.3 5.0
4.5 4.7 5.1 5.7 5.9 6.3 6.6 6.7 6.5 6.4 6.4 6.3 6.2 6.1 5.9 5.8 5.6 5.7 5.8 6.1 6.2 6.2 6.3 6.8 7.0 7.8 8.1 8.5 9.3 9.6 9.6 9.7 10.2 10.3 9.9 9.4 8.8 8.6 8.4 8.3 8.3 8.3 8.3 8.3 8.3 8.0 7.9 8.3 8.3 8.3 9.3 9.5 10.3 10.3 10.1 10.3 10.8 11.4 11.2 11.5 10.9 11.7 12.7 12.1 11.3 11.4 11.4 10.9 8.6 6.6 5.6 3.8 3.4 4.1 2.6 2.2 2.8 3.7 5.7 6.9 7.4 6.5 6.3 7.0 6.9
3.7 4.0 4.4 4.7 4.9 5.2 5.2 5.3 5.6 5.9 6.1 6.2 6.4 6.6 6.9 7.2 7.3 7.2 7.2 7.4 7.5 7.5 8.0 8.5 8.5 9.1 9.7 10.1 9.9 9.8 9.9 10.2 10.8 11.5 11.2 10.6 9.9 9.5 9.5 9.8 9.1 8.8 8.0 7.4 7.0 7.2 7.6 7.3 7.3 7.5 8.3 8.8 9.3 9.6 9.8 11.8 11.8 13.3 10.4 12.4 12.3 14.3 15.4 13.8 13.3 13.5 13.2 12.0 10.6 9.0 6.2 5.3 3.9 3.0 2.5 3.0 4.4 4.6 4.7 6.4 8.2 6.6 6.7 6.1 6.0
3.1 3.1 3.4 3.8 4.1 4.3 4.5 4.9 5.1 5.3 5.5 5.8 6.2 6.5 6.9 7.3 7.5 7.6 7.9 8.1 8.4 9.0 9.5 10.1 11.0 11.1 10.5 10.5 10.5 10.3 10.7 10.8 11.6 13.8 15.5 15.1 12.9 12.7 11.8 11.5 11.1 10.3 9.2 8.2 7.4 7.7 7.6 7.5 7.6 7.4 7.0 6.9 7.0 7.7 8.3 9.2 12.1 14.2 12.2 11.7 13.8 14.7 15.1 15.1 15.3 15.6 15.1 13.7 12.6 8.4 7.5 6.8 5.0 4.5 5.0 4.8 5.7 6.4 4.8 4.3 5.7 4.5 4.8 5.5 5.9
2.2 2.5 2.8 3.1 3.3 3.7 4.3 4.5 4.9 5.0 5.7 6.0 6.4 6.9 7.3 7.6 8.0 8.2 8.3 8.9 9.8 10.5 11.3 11.8 12.4 12.2 11.8 11.4 11.3 11.7 12.1 12.1 11.8 13.4 20.1 20.6 18.3 18.0 17.5 15.9 14.4 13.2 12.2 11.0 9.8 8.8 8.7 8.4 7.7 6.7 6.6 6.8 7.3 8.0 8.8 9.8 10.5 12.4 13.8 14.8 16.8 17.8 18.3 18.3 17.6 16.1 16.8 17.7 15.0 11.4 11.6 8.9 5.8 4.8 5.1 4.5 3.9 3.5 3.9 4.7 6.4 4.6 4.5 5.6 5.4
1.8 2.0 2.3 2.6 3.0 3.3 3.7 4.0 4.5 4.7 5.3 5.7 6.3 6.9 7.3 7.7 8.3 8.8 9.5 10.3 11.2 11.5 11.5 11.8 11.6 11.0 10.9 10.7 10.6 10.3 10.4 10.9 11.6 14.8 22.5 26.6 23.8 23.5 21.3 18.2 14.8 14.0 13.6 13.8 13.3 10.6 9.1 8.3 8.2 7.8 7.9 8.2 8.7 9.0 9.6 10.3 10.7 11.5 12.0 12.5 14.6 18.5 22.1 21.3 18.3 15.7 17.1 16.8 12.7 11.7 10.9 9.3 6.0 4.3 4.8 5.0 4.5 5.2 5.7 5.4 5.5 5.5 7.4 9.8 11.2
1.9 2.2 2.4 2.6 2.8 3.1 3.3 3.7 4.3 4.8 5.2 6.1 6.5 6.8 7.0 7.8 8.8 9.3 9.9 10.6 10.6 10.5 10.6 10.3 9.9 9.9 9.3 9.2 9.5 9.6 9.5 10.2 14.2 17.3 22.3 31.1 27.3 26.8 26.5 22.7 19.3 17.1 15.9 15.0 13.6 12.7 11.8 11.0 9.9 8.9 8.7 8.5 8.7 9.0 8.9 9.2 9.9 10.5 11.7 12.7 13.5 14.3 16.5 19.2 22.1 20.6 17.9 17.9 16.4 12.9 11.3 10.0 7.5 5.9 6.0 7.0 7.9 7.6 6.5 6.4 6.7 8.2 9.6 10.0 9.1
2.0 2.3 2.3 2.6 2.9 3.2 3.6 4.1 4.6 5.2 5.7 6.2 6.7 7.6 8.6 9.4 10.2 11.0 11.0 10.8 10.4 10.5 10.1 9.7 9.8 9.4 9.7 10.1 10.0 9.6 11.7 10.5 14.6 18.3 22.7 32.0 31.4 32.3 31.2 27.8 22.9 20.7 18.1 16.4 15.4 14.2 13.2 12.8 12.0 10.8 9.7 8.9 9.8 10.2 10.9 11.0 9.9 10.2 11.2 11.9 13.8 17.1 18.6 19.4 19.1 18.9 20.6 22.5 21.9 17.9 13.9 11.9 12.7 9.7 8.6 10.5 10.6 13.4 10.1 9.9 9.1 9.2 9.2 9.8 7.7
2.3 2.5 2.6 3.0 3.3 3.9 4.4 4.9 5.8 6.3 6.9 7.7 8.6 9.6 10.5 11.1 11.1 11.2 11.0 10.5 10.4 10.0 9.8 9.9 10.0 10.1 10.5 11.2 11.4 10.6 11.1 11.6 15.3 19.1 24.0 32.6 31.6 38.4 32.0 29.4 24.6 20.0 17.1 15.6 14.8 14.4 14.2 14.3 14.0 13.0 11.2 11.3 11.7 11.9 11.9 11.7 11.3 11.5 12.5 13.3 13.8 13.1 14.9 15.9 16.2 16.7 18.8 21.6 23.3 22.8 14.0 12.8 14.6 12.1 11.4 12.2 16.1 17.2 16.2 15.0 11.5 11.0 10.5 9.0 5.9
2.4 2.6 3.1 3.5 3.9 4.5 5.4 5.9 6.8 7.2 7.7 8.3 9.4 10.0 10.8 10.9 11.0 11.2 11.0 11.2 11.2 11.2 10.8 11.3 10.7 10.6 10.6 10.9 12.0 11.8 11.4 12.7 17.1 22.1 26.0 33.2 32.3 33.0 30.2 26.6 22.2 18.7 15.8 14.6 14.2 14.0 13.4 13.1 12.8 12.3 11.9 12.7 12.6 13.3 15.1 15.0 14.6 14.8 13.9 12.6 11.5 10.6 10.1 11.3 12.2 14.4 16.4 16.2 16.6 15.8 13.9 13.3 14.6 15.8 17.8 16.1 18.8 19.6 17.5 15.2 12.5 10.3 8.9 7.0 7.2
2.9 3.2 4.0 4.3 4.9 5.5 6.2 7.2 7.5 8.1 8.9 9.7 10.3 10.6 10.9 10.7 11.4 10.7 11.0 10.9 10.5 10.6 10.6 10.8 11.0 10.3 9.5 9.9 11.4 11.9 11.1 11.7 16.3 22.4 27.9 32.9 33.5 29.2 27.3 24.4 20.0 17.6 16.0 15.6 15.1 14.7 14.4 14.8 14.9 14.5 13.3 12.8 12.2 14.7 15.5 17.1 18.9 17.8 16.1 13.4 11.9 10.8 10.0 8.1 10.5 16.4 14.4 16.8 16.5 17.4 18.5 17.7 24.8 21.6 23.4 23.2 22.5 19.0 14.1 12.2 11.7 13.1 14.2 14.4 13.5
3.7 4.5 5.2 5.6 6.5 6.8 7.6 8.4 9.3 9.8 10.2 10.6 10.6 10.5 10.9 11.0 11.0 11.0 11.9 11.0 11.0 10.9 10.7 10.4 9.6 9.5 9.2 9.4 10.3 9.7 9.9 10.6 13.1 19.5 26.0 28.9 31.1 28.3 26.0 23.3 19.5 16.9 15.1 13.8 13.9 14.1 14.4 14.5 15.1 14.5 13.8 13.4 12.7 15.9 19.6 21.5 23.3 20.4 18.2 16.3 13.9 13.2 11.9 9.2 12.1 18.4 23.9 30.2 33.7 37.0 36.7 37.9 36.5 39.0 39.0 37.3 27.5 26.6 29.9 32.0 25.6 16.8 18.8 20.3 15.4
5.3 6.0 6.6 7.1 8.1 8.7 9.6 10.3 11.1 11.0 10.8 11.1 11.2 11.1 11.2 11.3 11.1 10.5 11.6 11.4 10.8 9.2 8.8 8.5 8.1 8.3 8.6 8.9 9.4 10.0 9.3 9.3 11.3 16.9 22.6 26.5 30.3 30.8 28.1 23.7 20.0 17.5 15.9 14.5 14.2 13.9 12.8 12.4 13.4 14.6 15.5 14.3 14.3 16.5 24.9 25.5 27.4 23.5 21.1 20.0 18.6 17.5 13.9 11.4 11.2 10.3 13.2 18.6 23.4 27.8 30.1 29.2 27.7 27.2 29.3 28.5 31.1 27.1 36.2 43.2 25.2 16.8 18.6 16.6 16.8
6.7 8.0 8.8 9.1 9.9 10.3 10.5 10.8 11.3 11.5 11.8 11.5 11.8 12.4 11.7 11.2 10.1 9.7 9.7 9.4 9.0 8.3 8.3 8.5 7.8 7.6 8.0 8.9 8.8 10.1 10.8 10.5 10.8 13.8 20.2 25.9 28.5 27.7 24.6 22.6 21.1 17.0 15.4 15.4 14.1 14.4 13.5 12.7 13.1 14.0 14.3 13.7 17.1 23.1 28.8 29.0 30.8 25.3 21.6 22.4 21.8 17.5 12.9 11.6 12.3 12.5 12.3 11.5 11.1 11.3 13.7 15.9 17.3 17.0 15.1 15.3 17.1 21.7 23.2 31.1 25.9 24.1 25.5 17.9 14.8
8.2 9.1 9.9 10.7 10.8 10.7 11.0 11.7 11.8 12.0 12.1 11.8 11.4 11.6 10.7 10.5 9.7 9.8 9.2 8.8 8.9 8.5 8.4 8.5 9.0 8.4 8.1 8.7 9.3 10.1 11.3 10.6 10.5 11.2 18.4 24.2 29.6 27.6 25.3 25.5 24.4 20.5 18.5 18.0 18.0 15.1 13.3 13.4 12.8 13.7 14.9 17.5 20.0 27.1 31.9 44.0 39.5 31.2 26.2 26.6 25.5 20.9 14.4 13.2 12.0 11.7 11.6 10.6 9.6 9.3 9.4 9.1 9.7 10.0 10.4 10.3 10.5 12.7 17.1 13.8 15.9 21.4 23.5 20.0 16.1
10.1 10.7 11.0 10.9 10.8 10.8 11.3 11.9 12.5 12.1 11.7 12.1 11.5 10.5 9.6 9.9 9.4 9.1 9.1 8.8 9.4 9.6 9.0 8.6 8.7 8.3 8.2 8.4 9.0 9.6 10.6 11.7 11.2 11.0 14.8 19.4 26.0 30.2 26.7 23.7 21.9 21.4 22.1 21.6 19.6 17.9 14.8 13.0 11.9 10.6 10.9 12.8 17.3 24.1 32.2 40.4 34.1 32.2 35.7 34.1 26.4 19.6 18.4 18.8 15.7 13.9 13.0 12.1 10.5 10.2 9.6 9.2 9.1 9.0 9.0 8.5 8.9 10.3 11.0 12.5 12.1 10.8 13.2 16.9 18.6
11.0 11.6 11.6 11.4 11.4 11.4 11.6 11.7 11.6 11.8 11.1 10.8 10.7 10.0 9.0 9.2 9.3 9.3 9.6 10.7 10.9 9.9 9.0 8.9 9.1 8.7 8.4 9.1 9.8 10.7 10.2 10.2 10.5 9.3 10.4 15.5 21.8 29.3 27.8 24.4 21.1 25.3 27.4 24.0 19.6 16.2 13.4 12.0 11.3 10.0 10.1 11.9 14.0 24.2 37.2 37.9 34.2 31.4 29.7 40.7 41.1 38.1 26.9 22.3 19.8 18.2 16.6 15.2 14.0 13.3 12.0 11.3 10.9 10.1 8.9 8.3 7.7 7.7 9.4 10.5 11.6 11.7 10.5 11.0 12.9
11.7 11.7 11.5 11.3 11.1 11.4 11.3 11.3 11.2 10.7 10.7 10.3 11.0 10.5 9.1 9.1 9.2 10.0 11.5 11.9 11.4 11.1 10.3 10.3 10.7 10.3 9.7 9.7 9.8 10.3 10.1 9.9 9.4 9.4 9.3 11.7 16.8 23.6 26.7 27.9 28.5 26.5 30.0 28.1 21.3 16.3 13.2 12.4 10.9 9.9 11.6 14.4 23.0 32.5 37.9 36.7 28.4 27.6 37.9 37.5 32.6 29.2 28.5 27.1 27.8 28.3 26.7 22.9 18.7 16.9 14.2 11.8 10.9 9.9 8.7 8.6 8.2 7.9 8.9 9.2 9.4 10.2 11.1 11.6 10.1
11.5 11.7 11.0 10.5 10.3 10.1 10.2 10.3 10.3 10.5 11.0 11.0 10.9 10.6 10.0 9.8 10.3 10.6 11.0 12.0 12.5 12.0 10.3 10.5 11.1 11.0 10.8 10.7 10.9 10.8 10.4 10.1 9.4 9.3 9.6 9.8 12.5 21.5 27.2 27.1 29.4 27.5 24.5 21.5 17.3 15.2 14.4 12.9 11.9 12.4 18.8 25.3 34.3 37.7 33.2 28.5 26.3 26.8 29.4 26.4 27.3 28.3 27.2 25.6 24.6 24.5 24.4 23.6 22.3 19.6 16.9 13.6 11.7 10.6 9.6 8.3 7.9 7.7 7.9 8.7 9.2 9.4 11.6 10.8 10.0
11.5 10.9 10.1 9.4 9.5 9.5 10.0 10.4 10.5 10.6 10.7 10.9 11.7 11.4 10.9 10.6 11.5 10.6 11.6 12.4 12.7 12.8 11.1 11.3 12.2 11.7 11.6 12.3 12.4 11.7 10.9 10.4 10.1 9.6 9.5 9.4 10.8 15.6 18.9 21.0 19.7 17.9 19.2 16.3 15.3 15.1 14.4 17.4 21.0 26.3 26.3 27.5 27.8 26.7 23.9 21.4 22.0 19.2 19.8 19.3 18.9 19.0 21.4 22.5 20.3 17.5 18.4 19.3 17.6 15.1 13.7 13.1 11.3 9.8 9.2 9.3 9.6 9.3 10.6 11.2 11.4 11.4 11.1 12.1 11.0
10.9 10.0 9.2 9.0 9.3 9.8 10.3 10.0 10.0 10.1 10.0 9.7 10.3 10.6 11.2 11.5 12.2 11.5 12.3 13.1 12.7 13.4 13.3 13.0 13.0 12.8 13.5 13.6 14.0 12.8 11.8 11.4 10.5 10.0 9.9 9.7 10.4 13.0 15.7 13.5 13.5 13.5 13.9 13.4 11.6 11.3 16.2 21.5 20.9 16.6 16.1 15.8 17.1 17.1 18.0 12.6 11.4 12.4 13.4 14.3 15.3 15.4 15.9 17.1 17.8 16.0 14.9 12.3 11.5 11.9 11.7 11.2 11.4 10.7 10.0 9.5 9.7 9.8 9.2 9.4 9.7 11.5 10.1 9.8 10.5
10.1 9.3 8.8 9.0 9.6 10.1 10.7 10.8 10.9 10.5 10.2 10.2 10.4 10.6 11.0 11.5 12.0 12.4 13.0 14.2 14.0 13.9 14.2 14.6 15.0 15.1 16.0 14.0 12.8 12.2 11.6 11.2 10.6 10.0 10.1 11.7 12.3 12.4 13.5 13.7 12.6 12.7 12.8 13.0 12.2 12.1 11.8 12.7 12.8 12.9 13.6 13.7 14.5 14.8 12.8 10.9 11.4 13.1 13.1 13.4 13.7 14.2 13.9 13.6 13.7 14.1 13.5 11.6 10.7 10.1 9.8 10.1 11.0 12.5 13.5 11.5 10.9 9.9 8.4 7.9 8.4 9.0 9.1 9.3 9.8
10.0 9.3 8.6 9.2 10.1 10.4 11.0 10.8 10.9 10.7 10.3 10.7 11.2 10.6 10.4 10.6 12.0 12.7 14.3 17.1 19.8 18.8 17.9 17.8 19.0 20.5 20.9 16.6 14.8 12.6 12.4 12.2 11.2 12.5 13.3 14.5 15.6 16.2 16.2 15.3 14.3 13.4 13.6 13.6 13.4 12.4 12.4 12.5 13.8 15.9 17.7 18.5 17.5 16.3 15.0 15.6 14.3 12.5 10.8 10.9 11.9 11.8 12.2 13.2 14.1 11.9 11.7 10.7 10.4 10.5 10.9 11.2 13.1 12.7 13.2 13.2 10.9 9.2 8.4 8.9 8.0 8.7 8.2 8.7 11.8
9.7 9.3 8.9 9.6 9.8 9.7 10.2 10.4 10.3 10.4 10.4 10.1 10.7 11.4 11.9 12.3 13.1 12.8 11.3 13.7 18.5 25.8 31.1 28.4 25.5 26.2 23.7 22.0 21.5 18.9 15.7 14.9 13.9 13.4 15.2 17.4 21.1 23.7 22.8 20.0 17.4 16.4 14.9 14.7 15.0 14.7 14.4 14.9 14.7 13.5 12.9 12.8 14.0 14.7 13.8 12.7 11.7 11.1 11.0 11.2 11.6 13.0 14.0 14.6 16.0 15.9 14.0 12.4 12.5 12.8 12.7 12.4 11.9 11.1 10.7 12.6 11.8 11.5 8.8 8.7 7.6 7.7 8.4 7.9 9.5
10.6 9.3 8.8 9.2 9.0 9.7 10.4 10.1 9.7 10.0 10.2 10.3 9.8 10.2 10.7 11.7 13.5 16.5 16.2 12.9 14.7 17.9 27.7 32.6 32.5 32.4 33.0 26.3 22.7 26.2 25.9 19.8 18.6 23.2 25.0 28.3 25.0 24.2 23.6 24.0 21.4 20.2 17.6 15.0 16.7 17.3 16.4 15.7 14.2 13.9 13.4 13.1 13.4 14.2 14.2 13.5 13.2 12.8 12.3 11.9 11.6 11.9 12.8 14.3 13.7 13.1 12.3 12.7 12.6 12.9 12.5 12.3 12.4 12.0 11.4 11.1 9.8 9.7 10.1 9.9 10.0 8.5 10.0 11.0 11.0
12.9 10.9 10.1 9.9 9.5 10.7 10.3 9.5 9.0 9.6 9.6 9.4 9.4 10.0 9.7 9.8 11.0 12.8 13.8 14.1 14.5 18.0 22.3 27.4 29.7 29.5 35.2 35.8 24.4 19.1 18.3 16.6 20.0 21.0 24.7 28.8 32.1 23.5 24.0 24.3 22.4 23.2 22.0 23.1 23.8 21.2 18.8 17.1 15.6 14.6 13.7 13.5 13.7 14.4 14.5 13.3 13.1 13.3 13.4 12.7 12.3 12.2 11.8 12.1 13.9 14.3 14.7 15.1 14.7 14.1 13.8 13.4 12.8 12.1 12.4 10.6 10.8 9.9 9.6 9.8 10.1 11.2 11.3 10.6 10.9
14.8 12.0 10.8 10.3 9.9 9.6 9.6 9.6 9.5 9.6 9.1 9.0 9.3 9.8 9.8 9.6 8.8 9.7 11.7 13.0 13.8 16.7 18.6 21.3 25.5 29.0 27.5 27.6 27.8 25.1 20.1 19.2 18.2 22.5 25.1 30.8 22.4 19.3 20.9 21.6 24.6 25.1 21.1 18.2 19.7 19.3 17.4 17.0 16.5 16.0 15.4 15.2 14.9 14.8 14.2 13.4 13.2 13.4 14.1 14.9 14.5 13.5 13.1 12.8 12.6 13.1 12.8 13.8 15.6 16.2 16.1 15.9 14.4 13.2 12.8 12.1 11.7 11.6 10.9 11.4 12.4 12.0 12.5 12.0 11.3
13.6 12.4 11.2 10.7 10.2 9.2 9.4 9.6 9.5 9.8 10.1 10.1 9.8 9.6 10.3 10.4 11.2 9.5 9.0 9.9 11.5 12.7 13.1 14.7 17.5 19.3 20.4 22.4 25.0 27.2 24.0 22.2 21.2 27.1 27.0 21.7 16.7 16.0 18.9 23.6 24.2 20.4 20.7 19.1 15.9 14.7 14.0 13.9 15.4 15.8 15.8 16.1 15.5 15.1 14.8 14.4 14.0 13.5 13.7 14.2 14.4 14.2 13.9 12.9 12.3 12.4 13.2 14.3 16.0 15.8 15.8 17.1 16.8 15.8 14.1 13.3 13.7 14.3 13.0 11.9 11.0 11.4 11.7 12.7 12.1
12.0 12.5 11.8 11.1 11.0 9.9 9.3 9.5 10.1 9.8 9.8 10.5 10.2 10.3 9.8 10.4 11.2 11.0 10.8 9.1 9.3 10.3 11.1 11.5 12.2 12.5 12.3 13.6 15.7 17.0 18.6 20.3 18.7 16.0 17.2 18.3 23.2 23.9 21.8 20.1 15.9 14.2 15.6 16.7 15.2 13.7 12.5 12.6 13.0 13.7 13.7 13.5 13.7 13.5 13.1 12.9 12.7 12.5 12.3 12.6 12.7 12.6 12.8 12.7 12.3 12.6 13.2 13.9 15.2 15.3 15.5 15.9 16.7 18.6 18.8 17.3 14.7 13.5 13.5 12.7 12.0 13.0 13.8 13.6 13.0
10.4 9.8 9.0 9.2 10.1 10.1 9.8 9.9 10.4 10.5 10.4 10.2 10.2 10.5 10.8 10.4 11.0 12.2 12.6 12.3 12.2 11.9 11.4 11.7 10.6 9.9 11.7 12.1 12.8 13.0 13.2 13.1 14.1 15.3 16.9 20.0 21.6 19.7 18.2 16.8 14.9 11.8 10.8 10.4 10.5 11.0 10.8 11.1 11.2 11.3 11.5 11.5 11.1 11.1 11.2 10.9 11.1 10.9 10.8 10.4 10.0 10.3 10.8 11.7 12.1 12.1 12.4 13.1 13.5 13.7 13.9 14.7 15.0 16.2 17.8 19.0 18.4 18.4 16.5 15.3 14.1 14.7 14.2 13.1 12.5
10.0 9.9 8.7 8.2 8.9 9.5 9.8 9.9 10.3 10.7 11.2 10.8 10.6 10.9 10.7 10.7 11.4 11.2 11.1 11.2 12.3 12.1 11.6 11.5 11.7 10.8 10.4 11.0 11.4 11.1 11.3 11.8 13.6 16.1 20.0 21.7 20.7 19.4 19.2 15.1 11.2 9.0 8.8 9.0 9.2 9.4 9.6 9.8 9.9 9.6 9.7 9.8 10.0 10.1 10.3 10.4 10.6 10.8 10.5 10.2 9.3 8.9 9.3 9.9 10.5 11.1 11.8 12.9 13.4 13.3 13.3 14.0 14.6 15.4 16.3 17.0 17.7 17.5 16.8 15.6 14.7 13.8 13.5 13.5 13.1
10.6 9.9 9.2 8.6 9.1 9.7 9.5 9.6 9.8 10.2 10.8 11.1 11.3 11.1 10.5 10.4 10.5 10.5 10.5 10.5 11.4 11.3 11.7 11.4 11.0 10.7 10.8 10.5 10.8 10.1 10.0 11.1 12.7 14.2 16.7 17.4 14.9 12.5 10.6 9.3 9.2 8.7 8.5 8.7 8.7 8.5 8.3 8.2 8.6 8.4 8.1 8.4 8.7 9.0 9.1 9.2 9.0 8.8 8.5 8.5 8.7 8.9 9.5 10.1 10.6 11.0 11.5 11.7 12.0 12.4 12.8 13.4 13.9 14.3 15.6 16.8 16.5 17.0 17.1 17.0 16.6 15.5 15.3 14.3 14.1
10.0 10.0 9.9 9.9 10.5 10.3 10.1 9.9 9.5 9.7 10.0 10.4 10.6 11.1 10.7 10.2 10.5 10.6 11.0 11.1 11.5 12.2 12.4 11.6 11.3 10.8 11.3 10.9 10.3 10.7 10.2 9.5 9.4 10.5 11.3 11.6 10.9 9.6 8.5 8.7 9.1 9.1 8.4 8.0 8.2 8.4 7.9 7.2 7.4 7.6 7.3 7.2 7.0 6.7 6.9 6.9 7.0 6.8 6.6 6.5 6.8 7.4 8.6 9.2 10.2 10.7 10.9 10.8 11.2 11.9 12.6 12.9 13.5 14.1 14.5 15.1 14.9 15.2 15.5 15.5 16.5 17.2 16.6 16.0 16.3
9.6 9.3 9.4 10.0 10.9 11.0 10.9 10.6 9.9 10.1 10.1 10.3 10.4 10.8 10.9 11.1 10.9 10.9 11.1 11.1 10.8 11.1 11.7 11.8 11.5 11.3 11.3 11.8 11.9 10.6 10.2 10.6 11.0 11.1 11.0 10.3 8.8 8.1 8.4 8.7 8.7 8.0 8.0 8.0 7.8 7.7 7.7 7.3 7.0 6.9 6.8 6.8 6.7 6.7 7.0 6.5 6.2 6.1 5.9 5.9 5.7 5.9 6.4 6.8 7.7 9.0 10.2 10.6 10.8 11.2 11.8 12.1 12.6 13.2 14.0 14.1 13.3 13.2 13.9 14.3 14.5 15.0 16.1 15.9 15.6
11.1 10.4 10.0 10.2 11.1 10.8 10.9 10.7 10.4 10.7 10.5 10.8 10.4 10.7 11.3 11.3 11.2 11.3 11.2 11.0 10.6 10.7 11.1 11.4 11.2 11.0 11.3 12.0 12.5 12.8 11.9 10.7 9.8 9.2 8.7 8.5 8.6 8.9 8.7 8.4 8.1 8.3 8.5 8.2 7.9 8.0 7.9 7.4 7.2 7.1 6.6 6.4 6.5 6.5 6.6 6.6 6.3 6.0 5.8 5.9 5.9 5.9 6.1 6.6 7.0 7.6 8.3 8.9 9.9 10.1 10.8 10.9 11.0 11.7 12.6 13.1 13.0 12.9 13.3 13.2 12.9 13.8 13.8 13.7 13.0
12.3 11.7 11.2 10.8 11.1 11.6 11.0 10.7 10.7 10.9 10.9 10.9 11.1 11.7 11.9 11.9 11.7 11.6 11.4 10.9 10.4 10.1 10.0 10.4 10.7 10.8 11.0 11.6 11.3 13.7 13.8 12.6 10.6 9.3 8.9 8.7 8.5 8.4 8.0 7.8 8.2 8.0 7.8 8.1 8.0 7.9 7.9 7.5 6.9 6.6 6.3 6.2 6.3 6.6 6.4 6.4 6.1 6.1 6.0 5.8 5.7 5.9 5.9 6.1 6.5 6.9 7.3 8.0 8.6 9.1 9.5 10.0 10.3 11.2 11.5 11.1 11.8 12.3 12.0 12.8 13.1 13.1 13.2 13.2 12.8
13.2 13.3 12.8 12.0 11.5 12.0 11.8 11.0 10.9 10.7 10.8 11.2 11.3 12.1 12.5 12.4 11.7 11.7 10.9 10.0 9.7 9.6 9.9 9.6 9.8 10.1 9.9 9.9 10.5 11.8 11.3 10.1 9.3 8.9 8.7 8.9 8.8 8.4 8.2 7.7 7.7 8.3 8.5 8.3 8.6 8.4 7.5 7.1 6.7 6.7 6.7 6.5 6.6 6.4 6.5 6.3 6.4 6.4 6.2 6.0 5.9 5.8 5.9 6.0 6.3 6.6 7.0 7.4 7.7 8.1 8.6 9.6 10.4 10.9 10.8 11.6 11.0 11.0 11.5 11.7 12.0 12.4 13.1 13.3 13.2
13.7 13.9 13.8 13.1 12.6 12.5 12.7 12.0 11.5 11.4 11.0 11.3 11.6 11.8 12.0 11.8 11.3 10.5 9.7 9.4 9.2 9.3 9.4 9.0 8.9 8.9 8.9 8.7 9.0 9.2 8.9 8.6 8.7 8.8 9.1 9.0 8.7 8.1 7.7 7.6 7.7 7.9 8.1 7.9 7.8 7.9 7.8 7.5 7.1 6.8 7.0 6.7 6.9 7.2 7.5 7.1 6.9 6.8 6.6 6.6 6.5 6.4 6.3 6.0 6.2 6.5 6.8 7.1 7.0 7.2 7.9 8.5 9.1 9.5 9.5 9.7 9.9 10.4 10.5 10.6 10.8 11.0 11.5 12.5 12.9
13.4 13.4 13.2 13.1 12.3 11.6 11.2 11.6 11.7 11.4 12.0 12.1 11.9 11.5 11.3 10.8 9.7 9.1 9.0 8.5 8.4 8.6 9.1 9.1 9.1 9.0 8.8 8.4 8.2 8.0 8.0 8.0 8.5 8.9 9.0 8.5 7.9 7.6 7.5 7.3 7.3 7.1 6.9 6.9 6.9 6.9 7.2 7.2 7.1 6.5 6.1 6.1 6.1 6.2 6.2 6.3 6.9 7.6 7.5 7.5 7.1 7.1 7.0 7.0 7.0 7.3 8.0 8.2 7.5 7.4 7.4 7.5 7.7 8.2 8.6 8.5 9.2 9.7 9.3 9.6 10.0 10.3 10.5 11.2 12.1
13.1 13.4 13.5 13.1 11.8 11.6 11.0 10.8 11.4 11.3 11.1 11.1 10.9 10.2 9.7 9.1 8.8 8.7 8.7 8.8 8.7 8.8 9.0 8.9 8.8 8.9 8.9 8.6 8.6 8.7 8.5 8.5 8.9 8.9 8.7 8.3 8.0 7.3 7.0 7.2 7.5 7.1 6.7 6.4 6.5 6.7 6.8 7.0 7.0 6.8 6.1 5.5 5.4 5.5 5.7 5.8 6.3 7.0 7.6 8.6 8.7 8.2 7.6 7.7 7.7 8.1 8.9 9.6 8.7 8.0 7.3 7.4 7.3 7.6 7.9 7.9 8.4 9.2 9.4 9.4 9.8 10.2 10.5 10.8 12.3
12.7 13.1 13.2 13.0 12.3 11.5 11.5 11.5 11.6 11.3 11.0 10.9 10.7 9.9 8.6 8.2 8.7 9.0 9.1 9.0 9.2 9.5 9.3 8.9 8.8 8.9 9.2 9.4 9.2 9.0 9.0 9.0 8.9 8.7 8.6 8.0 7.6 6.9 6.8 7.2 7.1 6.9 6.8 6.8 6.6 6.7 6.7 7.0 7.2 6.9 6.2 5.4 5.0 4.9 5.1 5.4 5.7 6.0 6.5 7.4 8.1 8.1 7.8 8.0 8.1 8.7 8.5 9.0 8.8 8.5 7.9 7.7 7.1 7.4 7.9 8.6 8.6 9.1 9.5 9.1 9.6 10.2 11.3 11.3 11.7
12.3 12.7 12.7 12.5 12.6 12.1 11.8 11.4 11.3 11.3 11.0 10.7 10.5 9.9 9.0 8.8 9.4 9.3 9.3 9.6 9.5 9.5 9.5 9.2 9.1 9.0 9.2 9.6 9.4 9.2 9.2 8.9 8.8 8.6 8.4 8.0 7.6 7.2 6.8 6.7 6.7 6.4 6.0 5.8 6.1 6.3 6.4 6.2 6.2 6.3 6.1 5.5 5.1 5.1 5.1 5.2 5.2 5.6 5.9 6.4 6.8 6.7 6.8 7.4 7.7 8.0 8.0 7.5 8.0 8.8 8.3 8.2 7.6 7.3 7.1 8.0 8.7 8.7 9.1 9.2 10.0 10.6 10.5 11.3 11.8
12.0 12.1 11.9 11.7 11.7 12.1 11.7 11.9 11.9 11.5 11.1 10.7 10.4 9.9 9.8 9.8 10.0 9.2 9.5 9.3 9.4 9.8 9.9 9.3 8.9 8.8 9.1 9.1 9.1 9.3 9.0 8.6 8.3 8.2 7.9 7.7 7.3 7.1 6.9 6.9 6.8 6.4 6.1 5.8 5.5 5.5 5.5 5.5 5.5 5.7 5.6 5.4 5.3 5.1 5.0 5.0 5.3 5.5 5.8 6.1 6.2 6.6 6.7 6.9 7.2 6.9 6.9 7.3 7.6 8.0 8.4 8.3 7.7 7.6 7.8 8.5 8.7 8.8 9.9 9.4 9.6 10.1 10.9 11.2 11.2
11.5 12.0 12.1 11.8 11.9 12.0 12.6 12.7 12.5 12.5 12.0 11.5 10.8 10.5 10.5 10.2 9.6 9.4 10.0 9.8 10.2 10.2 10.1 9.8 9.1 8.6 8.5 8.8 9.2 9.2 8.9 8.5 7.9 7.5 7.2 7.0 6.7 6.4 6.4 6.4 6.4 6.1 5.7 5.2 5.0 4.9 4.9 5.0 5.2 5.3 5.5 5.6 5.6 5.4 5.3 5.3 5.5 5.4 5.6 5.7 5.7 5.5 5.9 6.3 7.1 7.2 7.0 7.7 7.7 7.5 7.5 7.5 7.5 7.1 7.3 7.9 8.0 8.6 9.7 9.8 10.4 10.5 10.3 10.6 11.3
11.2 11.5 11.9 11.9 11.8 11.6 11.4 11.9 12.0 11.9 11.5 11.5 11.8 11.5 10.5 9.6 9.3 9.5 9.8 10.0 10.3 10.2 9.6 9.2 9.0 8.7 8.6 8.5 8.6 8.3 8.0 7.6 7.2 6.9 6.6 6.2 6.1 6.0 5.7 5.6 5.5 5.3 5.1 5.0 4.7 4.8 4.6 4.7 4.8 5.0 5.2 5.4 5.4 5.3 5.5 5.5 5.4 5.6 5.8 5.6 5.4 5.8 6.1 6.3 6.4 6.6 7.3 7.6 7.4 7.4 7.5 7.5 7.1 7.0 7.1 7.6 8.1 8.6 9.2 9.2 9.6 10.2 10.7 11.0 11.1
11.1 11.4 11.6 12.0 12.1 11.7 11.7 12.1 12.0 11.7 11.8 11.9 11.6 11.3 10.6 10.0 9.9 9.9 10.3 10.6 10.8 10.6 10.1 9.6 8.9 8.5 8.0 8.1 8.4 8.0 7.6 6.9 6.3 6.0 5.7 5.4 5.4 5.2 5.2 5.0 4.8 4.7 4.5 4.5 4.4 4.6 4.6 4.6 4.6 4.8 5.0 5.1 5.0 5.0 5.0 5.1 5.4 5.8 5.9 5.9 6.0 6.1 6.1 6.6 6.9 6.4 6.6 7.3 7.6 7.8 8.1 7.6 7.4 7.1 6.8 7.1 7.9 8.6 8.4 9.0 9.5 10.3 10.7 11.4 11.5